Tervuren markt Meer informatie Tervuren markt


Bezoek onze andere website:

Meteotemplate

Home Weather Station

Saratoga


Lokaal brand risico:
CBI


Regionaal brand risico: Meer informatie



Select another period ( hide this area )

Eenheden Periode Custom range Directly to
Metrisch Engels Beide
Dagelijkse Wekelijkse Maandelijkse Jaarlijkse
use both date-selectors for a custom range
previous Dag
With this date

WeatherUnderground graphs for this period ( click here )


Dagelijkse Samenvatting Zaterdag 17 april 2021
Tijd Temp. ( °C ) Dew pt. ( °C ) Wind ( km/h ) van Vlaag ( km/h ) Luchtdruk ( hPa ) Humid.( % ) Rainrate ( cm )
Hoog6,2 2,1 5,0 Noorden ( 23/43 ) 8,0 1027,4 86 -
Gemiddeld3,5 0,5 0,6 Kalm #54/77 1,9 1027,2 81 -
Laag1,3 -0,8 -   0,0 1027,1 74 -
Dagelijkse Tabular details for Zaterdag 17 april 2021
Tijd Temp. ( °C ) Dew pt. ( °C ) Wind ( km/h ) van Vlaag ( km/h ) Luchtdruk ( hPa ) Humid.( % ) Rainrate ( cm )
00:03 6,2 1,9 1,0 NNO 5,0 1027,4 74 -
00:08 6,2 2,1 3,0 NNO 3,0 1027,4 75 -
00:14 6,0 1,9   Kalm 6,0 1027,4 75 -
00:19 5,9 2,0 3,0 NNO 3,0 1027,4 76 -
00:23 5,8 1,9 1,0 NNO 3,0 1027,4 76 -
00:29 5,7 2,0 3,0 Noorden 8,0 1027,4 77 -
00:34 5,7 2,0 1,0 NNO 3,0 1027,4 77 -
00:39 5,6 1,9   Kalm 3,0 1027,4 77 -
00:44 5,6 1,9 1,0 NNW 6,0 1027,4 77 -
00:49 5,4 1,7 3,0 Noorden 8,0 1027,4 77 -
00:53 5,4 1,7 1,0 Noorden 8,0 1027,4 77 -
00:59 5,3 1,6 3,0 Noorden 3,0 1027,4 77 -
01:04 5,3 1,6 1,0 Noorden 3,0 1027,4 77 -
01:09 5,2 1,7 3,0 NNO 8,0 1027,4 78 -
01:14 5,2 1,7 1,0 Noorden 8,0 1027,4 78 -
01:19 5,2 1,7 5,0 Noorden 8,0 1027,4 78 -
01:24 5,1 1,6 5,0 Noorden 6,0 1027,4 78 -
01:29 5,1 1,6   Kalm 3,0 1027,4 78 -
01:34 5,0 1,5 1,0 NNO 6,0 1027,4 78 -
01:39 4,9 1,4   Kalm 2,0 1027,4 78 -
01:44 4,8 1,3 1,0 Noorden 5,0 1027,4 78 -
01:49 4,7 1,2 1,0 NNO 5,0 1027,4 78 -
01:54 4,7 1,3 1,0 NNO 3,0 1027,4 79 -
01:59 4,6 1,3 1,0 NNO 3,0 1027,4 79 -
02:04 4,6 1,1   Kalm 2,0 1027,4 78 -
02:09 4,4 0,9   Kalm   1027,4 78 -
02:14 4,3 1,0   Kalm   1027,4 79 -
02:19 4,2 0,9   Kalm   1027,4 79 -
02:24 4,1 0,8   Kalm   1027,1 79 -
02:29 3,9 0,6   Kalm   1027,1 79 -
02:34 3,8 0,7 1,0 NNO 3,0 1027,1 80 -
02:39 3,8 0,7   Kalm 3,0 1027,1 80 -
02:44 3,8 0,7   Kalm   1027,1 80 -
02:48 3,8 0,7   Kalm   1027,1 80 -
02:54 3,8 0,7   Kalm   1027,1 80 -
02:59 3,8 0,5   Kalm   1027,1 79 -
03:04 3,7 0,4   Kalm   1027,1 79 -
03:09 3,6 0,3   Kalm   1027,1 79 -
03:14 3,6 0,3   Kalm   1027,1 79 -
03:19 3,4 0,3   Kalm   1027,4 80 -
03:24 3,3 0,2   Kalm   1027,1 80 -
03:29 3,2 0,1   Kalm   1027,1 80 -
03:34 3,2 0,3   Kalm 3,0 1027,1 81 -
03:39 3,2 0,3   Kalm   1027,1 81 -
03:44 3,2 0,3 1,0 NNW 3,0 1027,1 81 -
03:49 3,1 0,2   Kalm 2,0 1027,1 81 -
03:54 3,1 0,2   Kalm 2,0 1027,1 81 -
03:59 2,9 0,0   Kalm 2,0 1027,1 81 -
04:04 2,8 -0,1   Kalm   1027,1 81 -
04:08 2,7 -0,2   Kalm   1027,1 81 -
04:13 2,7 -0,1   Kalm   1027,1 82 -
04:19 2,6 -0,2   Kalm   1027,1 82 -
04:24 2,5 -0,3   Kalm   1027,1 82 -
04:29 2,4 -0,4   Kalm   1027,1 82 -
04:34 2,3 -0,4   Kalm   1027,1 83 -
04:39 2,2 -0,4   Kalm   1027,1 83 -
04:44 2,1 -0,5   Kalm   1027,1 83 -
04:49 2,1 -0,5   Kalm   1027,1 83 -
04:54 2,0 -0,4   Kalm   1027,1 84 -
04:59 1,9 -0,5   Kalm   1027,1 84 -
05:04 1,8 -0,6   Kalm   1027,1 84 -
05:08 1,8 -0,6   Kalm   1027,1 84 -
05:14 1,7 -0,7   Kalm   1027,1 84 -
05:19 1,7 -0,6 1,0 NNW 2,0 1027,1 85 -
05:24 1,7 -0,6   Kalm 2,0 1027,1 85 -
05:29 1,7 -0,6   Kalm 2,0 1027,1 85 -
05:34 1,7 -0,6   Kalm 2,0 1027,1 85 -
05:39 1,7 -0,6   Kalm   1027,1 85 -
05:44 1,7 -0,6   Kalm   1027,1 85 -
05:48 1,6 -0,6   Kalm   1027,1 85 -
05:54 1,6 -0,6   Kalm   1027,1 85 -
05:59 1,5 -0,7   Kalm   1027,1 85 -
06:04 1,5 -0,7   Kalm   1027,1 85 -
06:09 1,4 -0,7   Kalm   1027,1 86 -
06:14 1,4 -0,8   Kalm 2,0 1027,1 85 -
06:19 1,4 -0,8   Kalm   1027,1 85 -
06:24 1,3 -0,8   Kalm   1027,1 86 -
Dagelijkse Samenvatting Zaterdag 17 april 2021
Tijd Temp. ( °C ) Dew pt. ( °C ) Wind ( km/h ) van Vlaag ( km/h ) Luchtdruk ( hPa ) Humid.( % ) Rainrate ( cm )
Hoog6,2 2,1 5,0 Noorden ( 23/43 ) 8,0 1027,4 86 -
Gemiddeld3,5 0,5 0,6 Kalm #54/77 1,9 1027,2 81 -
Laag1,3 -0,8 -   0,0 1027,1 74 -
Dagelijkse Tabular details for Zaterdag 17 april 2021
Tijd Temp. ( °C ) Dew pt. ( °C ) Wind ( km/h ) van Vlaag ( km/h ) Luchtdruk ( hPa ) Humid.( % ) Rainrate ( cm )
00:03 6,2 1,9 1,0 NNO 5,0 1027,4 74 -
00:08 6,2 2,1 3,0 NNO 3,0 1027,4 75 -
00:14 6,0 1,9   Kalm 6,0 1027,4 75 -
00:19 5,9 2,0 3,0 NNO 3,0 1027,4 76 -
00:23 5,8 1,9 1,0 NNO 3,0 1027,4 76 -
00:29 5,7 2,0 3,0 Noorden 8,0 1027,4 77 -
00:34 5,7 2,0 1,0 NNO 3,0 1027,4 77 -
00:39 5,6 1,9   Kalm 3,0 1027,4 77 -
00:44 5,6 1,9 1,0 NNW 6,0 1027,4 77 -
00:49 5,4 1,7 3,0 Noorden 8,0 1027,4 77 -
00:53 5,4 1,7 1,0 Noorden 8,0 1027,4 77 -
00:59 5,3 1,6 3,0 Noorden 3,0 1027,4 77 -
01:04 5,3 1,6 1,0 Noorden 3,0 1027,4 77 -
01:09 5,2 1,7 3,0 NNO 8,0 1027,4 78 -
01:14 5,2 1,7 1,0 Noorden 8,0 1027,4 78 -
01:19 5,2 1,7 5,0 Noorden 8,0 1027,4 78 -
01:24 5,1 1,6 5,0 Noorden 6,0 1027,4 78 -
01:29 5,1 1,6   Kalm 3,0 1027,4 78 -
01:34 5,0 1,5 1,0 NNO 6,0 1027,4 78 -
01:39 4,9 1,4   Kalm 2,0 1027,4 78 -
01:44 4,8 1,3 1,0 Noorden 5,0 1027,4 78 -
01:49 4,7 1,2 1,0 NNO 5,0 1027,4 78 -
01:54 4,7 1,3 1,0 NNO 3,0 1027,4 79 -
01:59 4,6 1,3 1,0 NNO 3,0 1027,4 79 -
02:04 4,6 1,1   Kalm 2,0 1027,4 78 -
02:09 4,4 0,9   Kalm   1027,4 78 -
02:14 4,3 1,0   Kalm   1027,4 79 -
02:19 4,2 0,9   Kalm   1027,4 79 -
02:24 4,1 0,8   Kalm   1027,1 79 -
02:29 3,9 0,6   Kalm   1027,1 79 -
02:34 3,8 0,7 1,0 NNO 3,0 1027,1 80 -
02:39 3,8 0,7   Kalm 3,0 1027,1 80 -
02:44 3,8 0,7   Kalm   1027,1 80 -
02:48 3,8 0,7   Kalm   1027,1 80 -
02:54 3,8 0,7   Kalm   1027,1 80 -
02:59 3,8 0,5   Kalm   1027,1 79 -
03:04 3,7 0,4   Kalm   1027,1 79 -
03:09 3,6 0,3   Kalm   1027,1 79 -
03:14 3,6 0,3   Kalm   1027,1 79 -
03:19 3,4 0,3   Kalm   1027,4 80 -
03:24 3,3 0,2   Kalm   1027,1 80 -
03:29 3,2 0,1   Kalm   1027,1 80 -
03:34 3,2 0,3   Kalm 3,0 1027,1 81 -
03:39 3,2 0,3   Kalm   1027,1 81 -
03:44 3,2 0,3 1,0 NNW 3,0 1027,1 81 -
03:49 3,1 0,2   Kalm 2,0 1027,1 81 -
03:54 3,1 0,2   Kalm 2,0 1027,1 81 -
03:59 2,9 0,0   Kalm 2,0 1027,1 81 -
04:04 2,8 -0,1   Kalm   1027,1 81 -
04:08 2,7 -0,2   Kalm   1027,1 81 -
04:13 2,7 -0,1   Kalm   1027,1 82 -
04:19 2,6 -0,2   Kalm   1027,1 82 -
04:24 2,5 -0,3   Kalm   1027,1 82 -
04:29 2,4 -0,4   Kalm   1027,1 82 -
04:34 2,3 -0,4   Kalm   1027,1 83 -
04:39 2,2 -0,4   Kalm   1027,1 83 -
04:44 2,1 -0,5   Kalm   1027,1 83 -
04:49 2,1 -0,5   Kalm   1027,1 83 -
04:54 2,0 -0,4   Kalm   1027,1 84 -
04:59 1,9 -0,5   Kalm   1027,1 84 -
05:04 1,8 -0,6   Kalm   1027,1 84 -
05:08 1,8 -0,6   Kalm   1027,1 84 -
05:14 1,7 -0,7   Kalm   1027,1 84 -
05:19 1,7 -0,6 1,0 NNW 2,0 1027,1 85 -
05:24 1,7 -0,6   Kalm 2,0 1027,1 85 -
05:29 1,7 -0,6   Kalm 2,0 1027,1 85 -
05:34 1,7 -0,6   Kalm 2,0 1027,1 85 -
05:39 1,7 -0,6   Kalm   1027,1 85 -
05:44 1,7 -0,6   Kalm   1027,1 85 -
05:48 1,6 -0,6   Kalm   1027,1 85 -
05:54 1,6 -0,6   Kalm   1027,1 85 -
05:59 1,5 -0,7   Kalm   1027,1 85 -
06:04 1,5 -0,7   Kalm   1027,1 85 -
06:09 1,4 -0,7   Kalm   1027,1 86 -
06:14 1,4 -0,8   Kalm 2,0 1027,1 85 -
06:19 1,4 -0,8   Kalm   1027,1 85 -
06:24 1,3 -0,8   Kalm   1027,1 86 -

Download your copy of this data-set  here

Our weather-data as stored at Weather Underground. Script ontwikkeld door Jim McMurry. Aangepast voor de template door Leuven-Template.eu

U vindt ons ook hier:

Het Weer Aktueel

UK Metoffice

European Weather Network

WeatherCloud

Weather Underground

Benelux Weer Netwerk

AWEKAS

Citizen Weather Observer Program (CWOP)

HAMweather, WeatherForYou, PWS Weather

Apparatuur in gebruik:

Weerstation
Davis VP2

Weerprogramma
Meteobridge

Weercomputer
Meteobridge NANO

Davis VP2

Meteobridge

Meteobridge NANO